星链-3685 (STARLINK-3685 )

导读 | 星芒AI

STARLINK-3685 是 SpaceX 星链计划中的一颗低轨通信卫星,属于第 12 批星链卫星组(v1.5 版本)。该卫星于 2023 年 9 月发射,部署在约 550 公里的轨道高度,旨在为全球提供高速互联网服务。它采用先进的推进系统和激光通信技术,提升网络稳定性和数据传输效率。星链项目通过大规模部署此类卫星,构建全球覆盖的宽带网络,尤其服务于偏远地区。STARLINK-3685 的运行有助于增强星链星座的整体性能和可靠性。

基本信息
目录编号:
52115
目录名称:
STARLINK-3685
国际标识:
2022-029AD
轨道中心:
EARTH
卫星名称:
星链-3685
卫星全名:
星链-3685 (STARLINK-3685 )
卫星状态:
在轨 (已飞行1373 天)
发射日期:
2022-03-19 UTC
国别 :
美国 (US)
星等 :
--
轨道信息
数据来源 国际轨道数据
星历时间: 2025-12-21T01:00:30+0800
7小时前
查看轨道信息
半长轴: 6917.883km
偏心率: 0.0001368
轨道倾角: 53.218°
近地点辐角 82.885°
升交点赤经 73.680°
平近点角 277.229°
近地点: 538.799km
远地点: 540.693km
周期: 95.438分钟
每日圈数: 15.088394
详细信息
固有亮度:
5
最大亮度:
2.5
卫星平台:
Starlink v1.5
覆盖范围:
全球
运营商:
太空探索技术公司
运营商所在国:
美国
制造商(研发单位):
太空探索技术公司
制造商所在国:
美国
使用方式:
暂无
卫星简介
星链(Starlink)计划是由太空探索技术公司(SpaceX)提出的一个巨型低轨卫星互联网星座项目,计划在2019年至2024年间在太空搭建由约1.2万颗卫星组成的“星链”网络,其中1584颗将部署在地球上空550千米处的近地轨道,并从2020年开始工作。该卫星仍在工作。
2D轨道图
3D轨道图
轨道高度分析图
轨道倾角分析图
轨道综合分析图
查看轨道综合分析图